Honghu-2

operational
NORAD ID: 58555 Int'l Des: 2023-193 Owner: HONGQ Country: CN
LEOCIRCULARRETROGRADESSO

Über Honghu-2

Beschreibung wird geladen...

Live-Position

3D-Globus wird geladen...

Nächste Überflüge

Höhenverlauf

Altitude vs Time

uPlot chart will show altitude changes over time

Zweizeiliger Elementsatz

1 58555U 23193C 26063.11621472 .00053740 00000-0 24611-2 0 9992
2 58555 97.2764 56.7347 0038490 284.7979 74.8993 15.19624416 86022
Epoch: 4. März 2026 • Age: 14 hours

Aktueller Status

Höhe 512.5 km
Geschwindigkeit 7.61 km/s
Subsatellitenpunkt 19.75°N, 43.15°E
Startdatum 8. Dez. 2023
Alter 2.2 years
Typ other

Technische Details

Klassifizierung Payload
Masse 50.00 kg
Trockenmasse 50.00 kg
Gesamtmasse 50.00 kg
Länge 0.50 m
Durchmesser 0.30 m
Spannweite 1.00 m
Form Box + 2 pan
Hersteller CTYK
Bus-Typ HQ
Phasenstatus In Orbit
Besitzer/Staat HONGQ/CN

Große Konstellationen

Loading constellations...